| time (UTC) | temp C | wind direction | speed KPH | gust KPH | rain 1hr cm | rain 24hr cm | rain mn cm | humidity % | barometer mb |
| 20260504221045 | 13 | 0.0 | 0.0 | 0.00 | 0.00 | 0.00 | 74 | 1005.4 | |
| 20260504220142 | 13 | 0.0 | 0.0 | 0.00 | 0.00 | 0.00 | 74 | 1005.5 | |
| 20260504215035 | 13 | 0.0 | 0.0 | 0.00 | 0.00 | 0.00 | 73 | 1005.5 | |
| 20260504214127 | 14 | 0.0 | 0.0 | 0.00 | 0.00 | 0.00 | 72 | 1005.6 | |
| 20260504213035 | 14 | 0.0 | 0.0 | 0.00 | 0.00 | 0.00 | 71 | 1005.6 | |
| 20260504212057 | 15 | 0.0 | 0.0 | 0.00 | 0.00 | 0.00 | 71 | 1005.6 | |
| 20260504211039 | 15 | 0.0 | 0.0 | 0.00 | 0.00 | 0.00 | 70 | 1005.7 | |
| 20260504210043 | 15 | 0.0 | 0.0 | 0.00 | 0.00 | 0.00 | 69 | 1005.7 | |
| 20260504205134 | 15 | 0.0 | 0.0 | 0.00 | 0.00 | 0.00 | 68 | 1005.6 | |
| 20260504204114 | 16 | 0.0 | 0.0 | 0.00 | 0.00 | 0.00 | 66 | 1005.6 | |
| 20260504203109 | 16 | 0.0 | 0.0 | 0.00 | 0.00 | 0.00 | 65 | 1005.7 | |
| 20260504202104 | 16 | 0.0 | 0.0 | 0.00 | 0.00 | 0.00 | 64 | 1005.7 | |
| 20260504201120 | 17 | 0.0 | 0.0 | 0.00 | 0.00 | 0.00 | 64 | 1005.6 | |
| 20260504200119 | 17 | 0.0 | 0.0 | 0.00 | 0.00 | 0.00 | 64 | 1005.7 | |
| 20260504195103 | 17 | 0.0 | 0.0 | 0.00 | 0.00 | 0.00 | 64 | 1005.6 | |
| 20260504194119 | 17 | 0.0 | 0.0 | 0.00 | 0.00 | 0.00 | 63 | 1005.5 | |
| 20260504193055 | 17 | 0.0 | 0.0 | 0.00 | 0.00 | 0.00 | 60 | 1005.5 | |
| 20260504192043 | 17 | 0.0 | 0.0 | 0.00 | 0.00 | 0.00 | 58 | 1005.4 | |
| 20260504191038 | 18 | 0.0 | 0.0 | 0.00 | 0.00 | 0.00 | 56 | 1005.3 | |
| 20260504190040 | 18 | 0.0 | 0.0 | 0.00 | 0.00 | 0.00 | 55 | 1005.4 | |
| 20260504185031 | 18 | 0.0 | 0.0 | 0.00 | 0.00 | 0.00 | 54 | 1005.2 | |
| 20260504184035 | 19 | 0.0 | 0.0 | 0.00 | 0.00 | 0.00 | 53 | 1005.1 | |
| 20260504183052 | 20 | 0.0 | 0.0 | 0.00 | 0.00 | 0.00 | 51 | 1005.1 | |
| 20260504182021 | 20 | 0.0 | 0.0 | 0.00 | 0.00 | 0.00 | 50 | 1005.1 | |
| 20260504181022 | 21 | 0.0 | 0.0 | 0.00 | 0.00 | 0.00 | 48 | 1005.1 | |
| 20260504180122 | 22 | 0.0 | 0.0 | 0.00 | 0.00 | 0.00 | 47 | 1005.0 | |
| 20260504175113 | 22 | 0.0 | 0.0 | 0.00 | 0.00 | 0.00 | 42 | 1005.1 | |
| 20260504174126 | 22 | 0.0 | 0.0 | 0.00 | 0.00 | 0.00 | 41 | 1005.0 | |
| 20260504173104 | 23 | 0.0 | 0.0 | 0.00 | 0.00 | 0.00 | 41 | 1005.1 | |
| 20260504172100 | 23 | 0.0 | 0.0 | 0.00 | 0.00 | 0.00 | 39 | 1005.0 | |
| 20260504171116 | 23 | 0.0 | 0.0 | 0.00 | 0.00 | 0.00 | 38 | 1005.0 | |
| 20260504151113 | 26 | 0.0 | 0.0 | 0.00 | 0.00 | 0.00 | 32 | 1005.1 | |
| 20260504150111 | 27 | 0.0 | 0.0 | 0.00 | 0.00 | 0.00 | 31 | 1005.2 | |
| 20260504141051 | 28 | 0.0 | 0.0 | 0.00 | 0.00 | 0.00 | 26 | 1005.3 | |
| 20260504120105 | 28 | 0.0 | 0.0 | 0.00 | 0.00 | 0.00 | 22 | 1005.9 | |
| 20260504081045 | 24 | 0.0 | 0.0 | 0.00 | 0.00 | 0.00 | 35 | 1006.6 | |
| 20260504045054 | 16 | 0.0 | 0.0 | 0.00 | 0.00 | 0.00 | 52 | 1005.7 | |
| 20260504044031 | 15 | 0.0 | 0.0 | 0.00 | 0.00 | 0.00 | 52 | 1005.7 | |
| 20260504043027 | 15 | 0.0 | 0.0 | 0.00 | 0.00 | 0.00 | 53 | 1005.7 | |
| 20260504042024 | 15 | 0.0 | 0.0 | 0.00 | 0.00 | 0.00 | 53 | 1005.6 | |
| 20260504041021 | 15 | 0.0 | 0.0 | 0.00 | 0.00 | 0.00 | 54 | 1005.6 | |
| 20260504040017 | 15 | 0.0 | 0.0 | 0.00 | 0.00 | 0.00 | 54 | 1005.6 | |
| 20260504035112 | 14 | 0.0 | 0.0 | 0.00 | 0.00 | 0.00 | 56 | 1005.6 | |
| 20260504034110 | 13 | 0.0 | 0.0 | 0.00 | 0.00 | 0.00 | 59 | 1005.5 | |
| 20260504033105 | 12 | 0.0 | 0.0 | 0.00 | 0.00 | 0.00 | 62 | 1005.5 | |
| 20260504032103 | 12 | 0.0 | 0.0 | 0.00 | 0.00 | 0.00 | 65 | 1005.3 | |
| 20260504031059 | 12 | 0.0 | 0.0 | 0.00 | 0.00 | 0.00 | 65 | 1005.5 | |
| 20260504030056 | 11 | 0.0 | 0.0 | 0.00 | 0.00 | 0.00 | 64 | 1005.5 | |
| 20260504025112 | 11 | 0.0 | 0.0 | 0.00 | 0.00 | 0.00 | 63 | 1005.5 | |
| 20260504024128 | 12 | 0.0 | 0.0 | 0.00 | 0.00 | 0.00 | 61 | 1005.6 | |
| 20260504023044 | 12 | 0.0 | 0.0 | 0.00 | 0.00 | 0.00 | 58 | 1005.6 | |
| 20260504022103 | 13 | 0.0 | 0.0 | 0.00 | 0.00 | 0.00 | 54 | 1005.7 | |
| 20260504021037 | 13 | 0.0 | 0.0 | 0.00 | 0.00 | 0.00 | 53 | 1005.7 | |
| 20260504020036 | 14 | 0.0 | 0.0 | 0.00 | 0.00 | 0.00 | 52 | 1005.7 | |
| 20260504015030 | 15 | 0.0 | 0.0 | 0.00 | 0.00 | 0.00 | 51 | 1005.6 | |
| 20260504014029 | 15 | 0.0 | 0.0 | 0.00 | 0.00 | 0.00 | 52 | 1005.5 | |
| 20260504013023 | 15 | 0.0 | 0.0 | 0.00 | 0.00 | 0.00 | 51 | 1005.4 | |
| 20260504012019 | 15 | 0.0 | 0.0 | 0.00 | 0.00 | 0.00 | 51 | 1005.4 | |
| 20260504011018 | 16 | 0.0 | 0.0 | 0.00 | 0.00 | 0.00 | 52 | 1005.4 | |
| 20260504010112 | 16 | 0.0 | 0.0 | 0.00 | 0.00 | 0.00 | 52 | 1005.1 | |
| 20260504005111 | 16 | 0.0 | 0.0 | 0.00 | 0.00 | 0.00 | 51 | 1005.1 | |
| 20260504004107 | 16 | 0.0 | 0.0 | 0.00 | 0.00 | 0.00 | 51 | 1005.1 | |
| 20260504003103 | 16 | 0.0 | 0.0 | 0.00 | 0.00 | 0.00 | 51 | 1005.1 | |
| 20260504002101 | 17 | 0.0 | 0.0 | 0.00 | 0.00 | 0.00 | 51 | 1005.2 | |
| 20260504001055 | 16 | 0.0 | 0.0 | 0.00 | 0.00 | 0.00 | 51 | 1005.3 | |
| 20260504000052 | 17 | 0.0 | 0.0 | 0.00 | 0.00 | 0.00 | 51 | 1005.2 | |
| 20260503235048 | 17 | 0.0 | 0.0 | 0.00 | 0.00 | 0.00 | 51 | 1005.4 | |
| 20260503234045 | 17 | 0.0 | 0.0 | 0.00 | 0.00 | 0.00 | 51 | 1005.3 | |
| 20260503233041 | 17 | 0.0 | 0.0 | 0.00 | 0.00 | 0.00 | 51 | 1005.4 | |
| 20260503232037 | 17 | 0.0 | 0.0 | 0.00 | 0.00 | 0.00 | 50 | 1005.4 | |
| 20260503231033 | 17 | 0.0 | 0.0 | 0.00 | 0.00 | 0.00 | 48 | 1005.4 | |
| 20260503230034 | 17 | 0.0 | 0.0 | 0.00 | 0.00 | 0.00 | 47 | 1005.5 | |
| 20260503225047 | 17 | 0.0 | 0.0 | 0.00 | 0.00 | 0.00 | 47 | 1005.4 | |
| 20260503224047 | 17 | 0.0 | 0.0 | 0.00 | 0.00 | 0.00 | 47 | 1005.5 | |
| 20260503223041 | 17 | 0.0 | 0.0 | 0.00 | 0.00 | 0.00 | 47 | 1005.4 | |
| 20260503222117 | 18 | 0.0 | 0.0 | 0.00 | 0.00 | 0.00 | 46 | 1005.3 |